Location: Newark
(48.1500°N, 2.9667°W)
Time: 05:00:32
(UTC+00:00)

A-11 Canister half - Pass Details

Date: 23 January 2020
Orbit: 1524 x 1684 km, 47.3° (Epoch: 20 February)

Event Time Altitude Azimuth Distance (km) Brightness Sun altitude
Rises 16:55:42 0° 201° (SSW) 4,661 12.4 -0.7°
Reaches altitude 10° 16:59:12 10° 191° (S) 3,688 11.6 -1.2°
Maximum altitude 17:06:49 30° 135° (SE) 2,509 10.0 -2.4°
Drops below altitude 10° 17:14:35 10° 79° (E) 3,771 10.4 -3.5°
Enters shadow 17:16:46 - 73° (ENE) 4,373 10.7 -3.8°
Sets 17:18:11 0° 70° (ENE) 4,782 - -4.1°
